Back to catalog

ONDOSAT-OWL-12

AliveAmateur RadioVLEO
NORAD 62403·PAYLOAD·🇲🇳 Mongolia
This satellite name has not been confirmed by official sources yet.

Launched Dec 21, 2024 from Vandenberg Space Force Base

Loading…

Next Passes (next 24 hours)

TLE

FreshSource: Space-Track

Epoch: Sep 14, 2026, 22:19 UTC

1 62403U 24247AC  26257.93011603  .00028109  00000-0  64152-3 0  9990
2 62403  45.0008 136.3140 0003663 170.1663 189.9298 15.42432800 97005

Track ONDOSAT-OWL-12 in real time with AllMySat

Download on the App Store